This demonstration page uses our WeatherBlox Daily Observations layout. Learn more.

Left ArrowRight Arrow

Hourly Observations for January 23, 2018

Temp ( °F °C ) Dew Point ( °F °C ) Humidity (%) Winds ( mph kmh ) Pressure ( in mb ) Visibility ( mi km ) Precip ( " mm )
12:15 am 00:15 Cloudy 55 13 45 7 67 67 S 9 15 29.91 1013 10 16.0934 0 0
12:35 am 00:35 Cloudy 55 13 45 7 67 67 S 13 20 29.88 1012 10 16.0934 0 0
12:55 am 00:55 Cloudy 55 13 45 7 67 67 S 10 17 29.88 1012 10 16.0934 0 0
1:15 am 01:15 Cloudy 55 13 45 7 67 67 S 9 15 29.85 1011 10 16.0934 0 0
1:35 am 01:35 Cloudy 55 13 45 7 67 67 S 9 15 29.85 1011 10 16.0934 0 0
1:55 am 01:55 Cloudy 55 13 45 7 67 67 S 5 7 29.83 1010 10 16.0934 0 0
2:15 am 02:15 Cloudy 55 13 46 8 72 72 SSE 7 11 29.83 1010 10 16.0934 0 0
2:35 am 02:35 Cloudy 55 13 46 8 72 72 SSE 7 11 29.8 1009 10 16.0934 0 0
2:55 am 02:55 Cloudy 55 13 46 8 72 72 S 6 9 29.8 1009 10 16.0934 0 0
3:15 am 03:15 Cloudy with Rain 54 12 50 10 88 88 S 6 9 29.8 1009 7 11.26538 0.01 0.254
3:35 am 03:35 Cloudy with Rain 52 11 52 11 100 100 S 7 11 29.8 1009 7 11.26538 0.04 1.016
3:55 am 03:55 Cloudy with Rain 52 11 52 11 100 100 SSW 3 6 29.77 1008 7 11.26538 0.07 1.778
4:15 am 04:15 Cloudy with Rain 50 10 50 10 100 100 W 3 6 29.77 1008 5 8.0467 0.06 1.524
4:35 am 04:35 Cloudy with Heavy Rain 50 10 50 10 100 100 W 5 7 29.77 1008 4 6.43736 0.13 3.302
4:55 am 04:55 Cloudy with Rain 50 10 50 10 100 100 Calm 29.74 1007 4 6.43736 0.19 4.826
5:15 am 05:15 Cloudy with Mist and Fog 50 10 50 10 100 100 ESE 3 6 29.71 1006 4 6.43736 0.02 0.508
5:35 am 05:35 Cloudy with Light Rain 50 10 50 10 100 100 E 5 7 29.68 1005 2.5 4.02335 0.02 0.508
5:55 am 05:55 Cloudy with Rain 50 10 50 10 100 100 ESE 3 6 29.65 1004 1.75 2.816345 0.07 1.778
6:15 am 06:15 Cloudy with Light Rain 52 11 52 11 100 100 SSE 6 9 29.65 1004 4 6.43736 0.01 0.254
6:35 am 06:35 Cloudy with Rain 52 11 52 11 100 100 SW 7 11 29.65 1004 4 6.43736 0.02 0.508
6:55 am 06:55 Cloudy with Rain 50 10 50 10 100 100 W 9 15 29.65 1004 3 4.82802 0.03 0.762
7:15 am 07:15 Cloudy 50 10 50 10 100 100 WNW 5 7 29.65 1004 7 11.26538 0 0
7:35 am 07:35 Cloudy 50 10 50 10 100 100 W 3 6 29.65 1004 10 16.0934 0 0
7:55 am 07:55 Cloudy 50 10 50 10 100 100 Calm 29.65 1004 10 16.0934 0 0
8:15 am 08:15 Cloudy 50 10 50 10 100 100 WNW 6 9 29.65 1004 7 11.26538 0 0
8:35 am 08:35 Cloudy 50 10 50 10 100 100 W 3 6 29.65 1004 10 16.0934 0 0
8:55 am 08:55 Cloudy 52 11 52 11 100 100 WNW 13 20 29.68 1005 10 16.0934 0 0
9:15 am 09:15 Mostly Cloudy 52 11 52 11 100 100 WSW 5 7 29.68 1005 10 16.0934 0 0
9:35 am 09:35 Mostly Cloudy 54 12 54 12 100 100 NW 3 6 29.68 1005 10 16.0934 0 0
9:55 am 09:55 Partly Cloudy 54 12 52 11 94 94 NE 5 7 29.68 1005 10 16.0934 0 0
10:15 am 10:15 Partly Cloudy 55 13 52 11 88 88 Calm 29.68 1005 10 16.0934 0 0
10:35 am 10:35 Mostly Cloudy 55 13 52 11 88 88 Calm 29.65 1004 10 16.0934 0.01 0.254
10:55 am 10:55 Cloudy 57 14 52 11 82 82 Calm 29.65 1004 10 16.0934 0.01 0.254
11:15 am 11:15 Cloudy 59 15 52 11 77 77 Calm 29.65 1004 10 16.0934 0 0
11:35 am 11:35 Cloudy 59 15 52 11 77 77 Calm 29.65 1004 10 16.0934 0 0
11:55 am 11:55 Cloudy 59 15 52 11 77 77 Calm 29.62 1003 10 16.0934 0 0
12:15 pm 12:15 Cloudy 59 15 52 11 77 77 NNE 3 6 29.62 1003 10 16.0934 0 0
12:35 pm 12:35 Cloudy 59 15 54 12 82 82 NNE 5 7 29.62 1003 10 16.0934 0 0
12:55 pm 12:55 Cloudy 59 15 52 11 77 77 N 9 15 29.62 1003 10 16.0934 0 0
1:15 pm 13:15 Cloudy 55 13 48 9 77 77 NNW 17 28 29.62 1003 10 16.0934 0 0
1:35 pm 13:35 Cloudy 55 13 46 8 72 72 NNW 17 28 29.62 1003 10 16.0934 0 0
1:55 pm 13:55 Cloudy 55 13 45 7 67 67 NW 23 37 29.62 1003 10 16.0934 0 0
2:15 pm 14:15 Cloudy 55 13 43 6 63 63 NNW 20 31 29.65 1004 10 16.0934 0 0
2:35 pm 14:35 Partly Cloudy 57 14 41 5 55 55 NW 18 30 29.65 1004 10 16.0934 0 0
2:55 pm 14:55 Sunny 59 15 41 5 51 51 NW 16 26 29.65 1004 10 16.0934 0 0
3:15 pm 15:15 Sunny 57 14 37 3 48 48 WNW 20 31 29.68 1005 10 16.0934 0 0
3:35 pm 15:35 Sunny 55 13 36 2 47 47 NW 24 39 29.68 1005 10 16.0934 0 0
3:55 pm 15:55 Sunny 55 13 36 2 47 47 NW 22 35 29.71 1006 10 16.0934 0 0
4:15 pm 16:15 Sunny 54 12 36 2 51 51 WNW 16 26 29.71 1006 10 16.0934 0 0
4:35 pm 16:35 Sunny 54 12 34 1 47 47 WNW 18 30 29.74 1007 10 16.0934 0 0
4:55 pm 16:55 Sunny 54 12 32 0 44 44 WNW 29 46 29.74 1007 10 16.0934 0 0
5:15 pm 17:15 Sunny 52 11 32 0 47 47 WNW 23 37 29.74 1007 10 16.0934 0 0
5:35 pm 17:35 Clear 52 11 32 0 47 47 NW 15 24 29.77 1008 10 16.0934 0 0
5:55 pm 17:55 Clear 50 10 32 0 50 50 WNW 10 17 29.77 1008 10 16.0934 0 0
6:15 pm 18:15 Clear 46 8 32 0 57 57 WNW 8 13 29.8 1009 10 16.0934 0 0
6:35 pm 18:35 Clear 46 8 32 0 57 57 WNW 14 22 29.8 1009 10 16.0934 0 0
6:55 pm 18:55 Clear 46 8 32 0 57 57 WNW 13 20 29.8 1009 10 16.0934 0 0
7:15 pm 19:15 Clear 46 8 32 0 57 57 NW 13 20 29.83 1010 10 16.0934 0 0
7:35 pm 19:35 Clear 46 8 32 0 57 57 NW 16 26 29.83 1010 10 16.0934 0 0
7:55 pm 19:55 Clear 46 8 32 0 57 57 WSW 6 9 29.83 1010 10 16.0934 0 0
8:15 pm 20:15 Clear 45 7 32 0 61 61 Calm 29.88 1012 10 16.0934 0 0
8:35 pm 20:35 Partly Cloudy 45 7 32 0 61 61 W 9 15 29.88 1012 10 16.0934 0 0
8:55 pm 20:55 Partly Cloudy 46 8 32 0 57 57 WNW 12 19 29.88 1012 10 16.0934 0 0
9:15 pm 21:15 Clear 46 8 32 0 57 57 NW 14 22 29.88 1012 10 16.0934 0 0
9:35 pm 21:35 Clear 45 7 32 0 61 61 WNW 13 20 29.88 1012 10 16.0934 0 0
9:55 pm 21:55 Clear 45 7 32 0 61 61 WNW 14 22 29.88 1012 10 16.0934 0 0
10:15 pm 22:15 Clear 45 7 32 0 61 61 WNW 14 22 29.88 1012 10 16.0934 0 0
10:35 pm 22:35 Clear 45 7 32 0 61 61 WNW 18 30 29.91 1013 10 16.0934 0 0
10:55 pm 22:55 Clear 45 7 32 0 61 61 NW 10 17 29.91 1013 10 16.0934 0 0
11:15 pm 23:15 Clear 45 7 32 0 61 61 WNW 5 7 29.91 1013 10 16.0934 0 0
11:35 pm 23:35 Clear 45 7 32 0 61 61 W 12 19 29.91 1013 10 16.0934 0 0
11:55 pm 23:55 Mostly Cloudy 45 7 32 0 61 61 W 7 11 29.91 1013 10 16.0934 0 0

Powered by AerisWeather